Location: York
(31.8935°S, 116.7682°E)
Time: 18:55:47
(UTC+08:00)

deb Explorer IX - Pass Details

Date: 28 September 2022
Orbit: 533 x 1057 km, 38.8° (Epoch: 30 November)

Event Time Altitude Azimuth Distance (km) Brightness Sun altitude
Rises 01:41:55 0° 247° (WSW) 2,759 - -49.0°
Reaches altitude 10° 01:44:14 10° 247° (WSW) 1,825 - -48.7°
Maximum altitude 01:48:21 82° 335° (NNW) 546 - -48.2°
Drops below altitude 10° 01:52:24 10° 61° (ENE) 1,799 - -47.6°
Sets 01:54:40 0° 62° (ENE) 2,715 - -47.3°
